Location: *
(38.9800°N, 16.0500°E)
Time: 05:04:28
(UTC+00:00)

Cosmos 2082 - Pass Details

Date: 07 April 2020
Orbit: 833 x 856 km, 71.0° (Epoch: 27 May)

Event Time Altitude Azimuth Distance (km) Brightness Sun altitude
Exits shadow 01:52:43 59° 130° (SE) 979 3.9 -28.8°
Maximum altitude 01:53:08 61° 108° (ESE) 964 4.0 -28.7°
Drops below altitude 10° 01:58:46 10° 30° (NNE) 2,490 7.0 -27.9°
Sets 02:01:15 0° 27° (NNE) 3,431 7.8 -27.5°
